Location: Cicognara
(44.9500°N, 10.4667°E)
Time: 23:40:53
(UTC+00:00)

Cosmos 2173 Rocket - Pass Details

Date: 20 June 2021
Orbit: 945 x 1000 km, 83.0° (Epoch: 23 July)

Event Time Altitude Azimuth Distance (km) Brightness Sun altitude
Rises 20:08:14 0° 353° (N) 3,732 8.0 -8.9°
Reaches altitude 10° 20:10:47 10° 355° (N) 2,780 7.2 -9.2°
Maximum altitude 20:17:11 74° 80° (E) 1,043 4.1 -9.9°
Drops below altitude 10° 20:23:31 10° 166° (SSE) 2,754 5.8 -10.7°
Enters shadow 20:23:36 10° 166° (SSE) 2,783 5.8 -10.7°
